DELTA 1 R/B, 1983

Orbit data source: Space-Track

DELTA 1 R/B, 1983 is space debris in SSO originally from a launch on Thu, 03 Feb 1966 UTC launched from the Air Force Eastern Test Range (AFETR). Debris objects in space refer to the collection of defunct objects orbiting the Earth. Examples of debris include non-operational satellites, rocket bodies, and fragments generated from explosions, collisions, or faulty payload assembly.

Loading next visibility...
DELTA 1 R/B details
Identifier
1983, 1966-008B
Orbit
SSO
Last TLE update21 hours ago
Origin
Flag of USGSFC (US)
ManufacturerABL
MissionSpacecraft
Bus & MotorALTAIR, Unknown motor
Mass60 kg wet, 60 kg dry
Launch date (UTC)
1966-02-03 (59 years ago)
Launch vehicleUnknown
Launch site
Air Force Eastern Test Range (AFETR)
Object type
Payload
Rocket body
Debris
Shape & HBRCyl, 1.5 m
Radar Cross Section0.687 m², Medium (>0.1 m² and < 1m²)

Expand to show TLE details & history

TLE from 21 hours ago
0 DELTA 1 R/B
1 01983U 66008B   24355.76667513  .00002839  00000-0  50479-3 0  9991
2 01983  98.0319 272.5699 0066950  19.4985 340.8757 14.66455904 92925
Epoch: 2024-12-20T18:24Z
Definitive object data (Epoch: 2024-12-20T18:24:00.731Z)
Latitude-0.00002°
Longitude-93.26061°
Altitude630.831 km
Speed7.567 km/s
True Right ascension18h 10m 16s
True Declination0° 00' 00"
Sunlit
Object was in daylight at TLE epoch
Visualization TLE readout
Latitude-14.16379°
Longitude85.54689°
Altitude725.454 km
Speed7.467 km/s
Apparent Right ascension04h 24m 55s
Apparent Declination-29° 42' 24"
Sunlit
Object is in full shadow
Visualization observer readout
Local Sidereal Time13:58:08
Azimuth277.334° WNW
Elevation-58.446°
Doppler factor1
Orbital elements
Apogee altitude716.653 km
Perigee altitude622.286 km
Semi-major axis7,047.607 km
Eccentricity0.006695
Inclination98.0319°
RAAN272.5699°
Arg. of periapsis19.4985°
True anomaly340.62235°
Mean anomaly340.8757°
Eccentric anomaly340.74923°
Mean motion3.66843 °/min
BSTAR0.00050479
Orbital period98.13 mins
Loading maneuver chart data...
Loading historical data...
Loading historical data...
Loading historical data...
Loading historical data...
Loading historical data...
Loading historical data...
Loading historical data...

DELTA 1 R/B Visibility forecast

Observer location: undefined°, undefined

Span
Click to sort rows by Start time (UTC) header in descending order
Start Az.
Max El. time (UTC)
Max El. Az.
Max El.
End time (UTC)
End Az.
4 mins2024-12-21 17:29:56.000Z90.694° ESE2024-12-21 17:31:56.000Z60.175° ENE14.699°2024-12-21 17:33:56.000Z31.775° NE
6 mins2024-12-21 19:05:56.000Z195.977° SSW2024-12-21 19:07:56.000Z238.59° WSW35.332°2024-12-21 19:11:56.000Z332.145° NNW
7 mins2024-12-22 07:00:56.000Z39.477° NE2024-12-22 07:03:56.000Z102.813° ESE32.025°2024-12-22 07:07:56.000Z165.626° S
5 mins2024-12-22 08:38:56.000Z322.714° NNW2024-12-22 08:40:56.000Z288.512° WNW20.077°2024-12-22 08:43:56.000Z246.935° WSW
|